| time (UTC) | temp F | wind direction | speed MPH | gust MPH | rain 1hr in | rain 24hr in | rain mn in | humidity % | barometer mb |
| 20260905094001 | 51 | 274 | 0.0 | 0.0 | 0.00 | 0.00 | 0.00 | 69 | 1017.1 |
| 20260905093503 | 51 | 274 | 0.0 | 1.0 | 0.00 | 0.00 | 0.00 | 69 | 1017.1 |
| 20260905093008 | 51 | 274 | 0.0 | 1.0 | 0.00 | 0.00 | 0.00 | 70 | 1017.2 |
| 20260905092503 | 51 | 274 | 0.0 | 1.0 | 0.00 | 0.00 | 0.00 | 69 | 1017.1 |
| 20260905092004 | 51 | 274 | 0.0 | 1.0 | 0.00 | 0.00 | 0.00 | 68 | 1017.2 |
| 20260905091504 | 52 | 274 | 0.0 | 0.0 | 0.00 | 0.00 | 0.00 | 67 | 1017.2 |
| 20260905091005 | 52 | 274 | 0.0 | 0.0 | 0.00 | 0.00 | 0.00 | 67 | 1017.3 |
| 20260905090503 | 52 | 274 | 0.0 | 0.0 | 0.00 | 0.00 | 0.00 | 66 | 1017.3 |
| 20260905085503 | 52 | 274 | 0.0 | 1.0 | 0.00 | 0.00 | 0.00 | 65 | 1017.3 |
| 20260905085005 | 52 | 274 | 0.0 | 1.0 | 0.00 | 0.00 | 0.00 | 66 | 1017.3 |
| 20260905084504 | 52 | 274 | 0.0 | 1.0 | 0.00 | 0.00 | 0.00 | 66 | 1017.3 |
| 20260905084003 | 52 | 273 | 0.0 | 1.0 | 0.00 | 0.00 | 0.00 | 65 | 1017.4 |
| 20260905083503 | 53 | 273 | 0.0 | 1.0 | 0.00 | 0.00 | 0.00 | 65 | 1017.4 |
| 20260905082503 | 53 | 272 | 0.0 | 0.0 | 0.00 | 0.00 | 0.00 | 64 | 1017.5 |
| 20260905082004 | 53 | 272 | 0.0 | 1.0 | 0.00 | 0.00 | 0.00 | 64 | 1017.5 |
| 20260905081505 | 53 | 272 | 0.0 | 1.0 | 0.00 | 0.00 | 0.00 | 64 | 1017.5 |
| 20260905081003 | 53 | 272 | 0.0 | 1.0 | 0.00 | 0.00 | 0.00 | 64 | 1017.5 |
| 20260905080500 | 53 | 272 | 0.0 | 1.0 | 0.00 | 0.00 | 0.00 | 63 | 1017.5 |
| 20260905080009 | 53 | 272 | 0.0 | 1.0 | 0.00 | 0.00 | 0.00 | 63 | 1017.5 |
| 20260905075503 | 53 | 272 | 0.0 | 1.0 | 0.00 | 0.00 | 0.00 | 63 | 1017.5 |
| 20260905075001 | 53 | 272 | 0.0 | 1.0 | 0.00 | 0.00 | 0.00 | 63 | 1017.5 |
| 20260905074503 | 53 | 272 | 0.0 | 1.0 | 0.00 | 0.00 | 0.00 | 63 | 1017.5 |
| 20260905074004 | 53 | 272 | 0.0 | 1.0 | 0.00 | 0.00 | 0.00 | 63 | 1017.4 |
| 20260905073503 | 53 | 271 | 0.0 | 1.0 | 0.00 | 0.00 | 0.00 | 64 | 1017.4 |
| 20260905073000 | 53 | 270 | 0.0 | 1.0 | 0.00 | 0.00 | 0.00 | 64 | 1017.4 |
| 20260905072502 | 53 | 271 | 0.0 | 0.0 | 0.00 | 0.00 | 0.00 | 64 | 1017.3 |
| 20260905072004 | 53 | 271 | 0.0 | 1.0 | 0.00 | 0.00 | 0.00 | 63 | 1017.3 |
| 20260905071003 | 54 | 271 | 0.0 | 1.0 | 0.00 | 0.00 | 0.00 | 63 | 1017.1 |
| 20260905070502 | 54 | 271 | 0.0 | 1.0 | 0.00 | 0.00 | 0.00 | 63 | 1017.2 |
| 20260905070000 | 54 | 271 | 0.0 | 0.0 | 0.00 | 0.00 | 0.00 | 62 | 1017.2 |
| 20260905065501 | 54 | 271 | 0.0 | 0.0 | 0.00 | 0.00 | 0.00 | 62 | 1017.2 |
| 20260905065003 | 54 | 271 | 0.0 | 1.0 | 0.00 | 0.00 | 0.00 | 62 | 1017.1 |
| 20260905064503 | 54 | 271 | 0.0 | 1.0 | 0.00 | 0.00 | 0.00 | 62 | 1017.2 |
| 20260905064004 | 54 | 246 | 0.0 | 1.0 | 0.00 | 0.00 | 0.00 | 62 | 1017.1 |
| 20260905063505 | 55 | 246 | 0.0 | 1.0 | 0.00 | 0.00 | 0.00 | 62 | 1017.2 |
| 20260905062503 | 55 | 230 | 0.0 | 1.0 | 0.00 | 0.00 | 0.00 | 62 | 1017.2 |
| 20260905061503 | 55 | 229 | 0.0 | 0.0 | 0.00 | 0.00 | 0.00 | 62 | 1017.1 |
| 20260905061003 | 55 | 229 | 0.0 | 0.0 | 0.00 | 0.00 | 0.00 | 62 | 1017.2 |
| 20260905060503 | 54 | 229 | 0.0 | 0.0 | 0.00 | 0.00 | 0.00 | 62 | 1017.2 |
| 20260905060004 | 54 | 229 | 0.0 | 0.0 | 0.00 | 0.00 | 0.00 | 63 | 1017.1 |
| 20260905055502 | 54 | 229 | 0.0 | 0.0 | 0.00 | 0.00 | 0.00 | 63 | 1017.1 |
| 20260905055005 | 54 | 229 | 0.0 | 0.0 | 0.00 | 0.00 | 0.00 | 63 | 1017.1 |
| 20260905054503 | 54 | 229 | 0.0 | 0.0 | 0.00 | 0.00 | 0.00 | 63 | 1017.2 |
| 20260905054006 | 54 | 229 | 0.0 | 0.0 | 0.00 | 0.00 | 0.00 | 63 | 1017.2 |
| 20260905053504 | 54 | 229 | 0.0 | 0.0 | 0.00 | 0.00 | 0.00 | 63 | 1017.1 |
| 20260905053003 | 54 | 229 | 0.0 | 0.0 | 0.00 | 0.00 | 0.00 | 63 | 1017.2 |
| 20260905052505 | 54 | 229 | 0.0 | 0.0 | 0.00 | 0.00 | 0.00 | 63 | 1017.2 |
| 20260905052005 | 54 | 229 | 0.0 | 1.0 | 0.00 | 0.00 | 0.00 | 64 | 1017.3 |
| 20260905051504 | 54 | 229 | 0.0 | 1.0 | 0.00 | 0.00 | 0.00 | 63 | 1017.3 |
| 20260905050504 | 54 | 229 | 0.0 | 0.0 | 0.00 | 0.00 | 0.00 | 62 | 1017.2 |
| 20260905050007 | 54 | 229 | 0.0 | 0.0 | 0.00 | 0.00 | 0.00 | 62 | 1017.3 |
| 20260905045505 | 54 | 229 | 0.0 | 0.0 | 0.00 | 0.00 | 0.00 | 62 | 1017.3 |
| 20260905045006 | 54 | 229 | 0.0 | 0.0 | 0.00 | 0.00 | 0.00 | 62 | 1017.3 |
| 20260905044504 | 54 | 229 | 0.0 | 0.0 | 0.00 | 0.00 | 0.00 | 62 | 1017.3 |
| 20260905043006 | 54 | 229 | 0.0 | 0.0 | 0.00 | 0.00 | 0.00 | 63 | 1017.1 |
| 20260905042004 | 53 | 229 | 0.0 | 0.0 | 0.00 | 0.00 | 0.00 | 64 | 1017.1 |
| 20260905041504 | 53 | 229 | 0.0 | 0.0 | 0.00 | 0.00 | 0.00 | 64 | 1017.1 |
| 20260905041006 | 53 | 229 | 0.0 | 0.0 | 0.00 | 0.00 | 0.00 | 65 | 1017.1 |
| 20260905040008 | 53 | 229 | 0.0 | 0.0 | 0.00 | 0.00 | 0.00 | 65 | 1017.1 |
| 20260905035506 | 53 | 229 | 0.0 | 0.0 | 0.00 | 0.00 | 0.00 | 65 | 1017.1 |
| 20260905034502 | 52 | 229 | 0.0 | 1.0 | 0.00 | 0.00 | 0.00 | 66 | 1017.1 |
| 20260905034008 | 52 | 229 | 0.0 | 1.0 | 0.00 | 0.00 | 0.00 | 66 | 1017.0 |
| 20260905033004 | 52 | 229 | 0.0 | 0.0 | 0.00 | 0.00 | 0.00 | 65 | 1017.0 |
| 20260905032504 | 52 | 229 | 0.0 | 0.0 | 0.00 | 0.00 | 0.00 | 66 | 1016.8 |
| 20260905032010 | 52 | 229 | 0.0 | 0.0 | 0.00 | 0.00 | 0.00 | 66 | 1016.8 |
| 20260905031504 | 52 | 229 | 0.0 | 0.0 | 0.00 | 0.00 | 0.00 | 66 | 1016.7 |
| 20260905031006 | 52 | 229 | 0.0 | 0.0 | 0.00 | 0.00 | 0.00 | 65 | 1016.7 |
| 20260905030505 | 53 | 229 | 0.0 | 0.0 | 0.00 | 0.00 | 0.00 | 64 | 1016.6 |
| 20260905030009 | 53 | 229 | 0.0 | 0.0 | 0.00 | 0.00 | 0.00 | 64 | 1016.5 |
| 20260905025502 | 53 | 229 | 0.0 | 0.0 | 0.00 | 0.00 | 0.00 | 63 | 1016.6 |
| 20260905025006 | 54 | 229 | 0.0 | 0.0 | 0.00 | 0.00 | 0.00 | 63 | 1016.6 |
| 20260905024505 | 54 | 229 | 0.0 | 0.0 | 0.00 | 0.00 | 0.00 | 62 | 1016.6 |
| 20260905023503 | 55 | 229 | 0.0 | 1.0 | 0.00 | 0.00 | 0.00 | 61 | 1016.5 |
| 20260905023006 | 55 | 229 | 0.0 | 1.0 | 0.00 | 0.00 | 0.00 | 61 | 1016.6 |
| 20260905022010 | 56 | 229 | 0.0 | 1.0 | 0.00 | 0.00 | 0.00 | 58 | 1016.6 |
| 20260905021506 | 57 | 229 | 0.0 | 1.0 | 0.00 | 0.00 | 0.00 | 56 | 1016.5 |
| 20260905021007 | 57 | 229 | 0.0 | 1.0 | 0.00 | 0.00 | 0.00 | 55 | 1016.5 |
| 20260905020007 | 58 | 126 | 0.0 | 5.0 | 0.00 | 0.00 | 0.00 | 54 | 1016.5 |
| 20260905015505 | 58 | 58 | 0.0 | 5.0 | 0.00 | 0.00 | 0.00 | 53 | 1016.5 |
| 20260905015005 | 59 | 156 | 0.0 | 1.0 | 0.00 | 0.00 | 0.00 | 53 | 1016.5 |
| 20260905014506 | 59 | 93 | 0.0 | 1.0 | 0.00 | 0.00 | 0.00 | 52 | 1016.6 |
| 20260905014006 | 60 | 109 | 0.0 | 3.0 | 0.00 | 0.00 | 0.00 | 52 | 1016.5 |
| 20260905013506 | 60 | 137 | 0.0 | 3.0 | 0.00 | 0.00 | 0.00 | 51 | 1016.5 |
| 20260905013004 | 60 | 119 | 1.0 | 3.0 | 0.00 | 0.00 | 0.00 | 52 | 1016.5 |
| 20260905012503 | 60 | 285 | 0.0 | 5.0 | 0.00 | 0.00 | 0.00 | 51 | 1016.5 |
| 20260905011007 | 61 | 87 | 1.0 | 2.0 | 0.00 | 0.00 | 0.00 | 50 | 1016.5 |
| 20260905010506 | 61 | 235 | 1.0 | 6.0 | 0.00 | 0.00 | 0.00 | 50 | 1016.5 |
| 20260905010010 | 61 | 108 | 1.0 | 6.0 | 0.00 | 0.00 | 0.00 | 49 | 1016.5 |
| 20260905005504 | 62 | 217 | 1.0 | 4.0 | 0.00 | 0.00 | 0.00 | 48 | 1016.5 |
| 20260905005004 | 62 | 158 | 1.0 | 4.0 | 0.00 | 0.00 | 0.00 | 47 | 1016.4 |
| 20260905004504 | 62 | 141 | 0.0 | 3.0 | 0.00 | 0.00 | 0.00 | 46 | 1016.5 |
| 20260905004006 | 62 | 261 | 0.0 | 4.0 | 0.00 | 0.00 | 0.00 | 46 | 1016.5 |
| 20260905003506 | 62 | 129 | 1.0 | 4.0 | 0.00 | 0.00 | 0.00 | 45 | 1016.5 |
| 20260905003007 | 63 | 169 | 1.0 | 4.0 | 0.00 | 0.00 | 0.00 | 45 | 1016.5 |
| 20260905002504 | 63 | 165 | 1.0 | 4.0 | 0.00 | 0.00 | 0.00 | 44 | 1016.5 |
| 20260905002006 | 63 | 80 | 1.0 | 5.0 | 0.00 | 0.00 | 0.00 | 43 | 1016.4 |
| 20260905001003 | 64 | 136 | 1.0 | 5.0 | 0.00 | 0.00 | 0.00 | 42 | 1016.3 |
| 20260905000505 | 65 | 235 | 2.0 | 5.0 | 0.00 | 0.00 | 0.00 | 44 | 1016.3 |
| 20260905000003 | 65 | 21 | 2.0 | 6.0 | 0.00 | 0.00 | 0.00 | 43 | 1016.3 |
| 20260904235505 | 65 | 182 | 2.0 | 7.0 | 0.00 | 0.00 | 0.00 | 45 | 1016.3 |
| 20260904235005 | 66 | 122 | 3.0 | 7.0 | 0.00 | 0.00 | 0.00 | 43 | 1016.4 |
| 20260904234507 | 67 | 184 | 2.0 | 9.0 | 0.00 | 0.00 | 0.00 | 44 | 1016.4 |
| 20260904233505 | 67 | 135 | 2.0 | 8.0 | 0.00 | 0.00 | 0.00 | 45 | 1016.3 |
| 20260904233006 | 66 | 225 | 3.0 | 9.0 | 0.00 | 0.00 | 0.00 | 46 | 1016.3 |
| 20260904232503 | 67 | 163 | 3.0 | 10.0 | 0.00 | 0.00 | 0.00 | 46 | 1016.4 |
| 20260904232004 | 67 | 111 | 3.0 | 10.0 | 0.00 | 0.00 | 0.00 | 47 | 1016.3 |
| 20260904231505 | 67 | 270 | 3.0 | 10.0 | 0.00 | 0.00 | 0.00 | 48 | 1016.2 |
| 20260904231005 | 67 | 124 | 3.0 | 10.0 | 0.00 | 0.00 | 0.00 | 48 | 1016.2 |
| 20260904230505 | 67 | 91 | 2.0 | 8.0 | 0.00 | 0.00 | 0.00 | 50 | 1016.3 |
| 20260904230010 | 68 | 88 | 2.0 | 7.0 | 0.00 | 0.00 | 0.00 | 50 | 1016.3 |
| 20260904225504 | 68 | 243 | 1.0 | 7.0 | 0.00 | 0.00 | 0.00 | 50 | 1016.5 |
| 20260904224504 | 67 | 222 | 2.0 | 8.0 | 0.00 | 0.00 | 0.00 | 53 | 1016.4 |
| 20260904224005 | 65 | 223 | 4.0 | 13.0 | 0.00 | 0.00 | 0.00 | 54 | 1016.5 |
| 20260904223502 | 66 | 195 | 3.0 | 13.0 | 0.00 | 0.00 | 0.00 | 51 | 1016.5 |
| 20260904222005 | 66 | 259 | 3.0 | 8.0 | 0.00 | 0.00 | 0.00 | 54 | 1016.5 |
| 20260904221505 | 65 | 286 | 2.0 | 8.0 | 0.00 | 0.00 | 0.00 | 56 | 1016.6 |
| 20260904221004 | 65 | 192 | 1.0 | 8.0 | 0.00 | 0.00 | 0.00 | 56 | 1016.6 |
| 20260904220508 | 65 | 120 | 1.0 | 7.0 | 0.00 | 0.00 | 0.00 | 56 | 1016.6 |
| 20260904220002 | 65 | 216 | 2.0 | 12.0 | 0.00 | 0.00 | 0.00 | 56 | 1016.7 |
| 20260904215500 | 64 | 146 | 3.0 | 10.0 | 0.00 | 0.00 | 0.00 | 56 | 1016.6 |
| 20260904214504 | 65 | 243 | 2.0 | 10.0 | 0.00 | 0.00 | 0.00 | 54 | 1016.6 |
| 20260904214006 | 65 | 260 | 2.0 | 10.0 | 0.00 | 0.00 | 0.00 | 55 | 1016.6 |
| 20260904213503 | 66 | 94 | 2.0 | 7.0 | 0.00 | 0.00 | 0.00 | 54 | 1016.5 |
| 20260904213005 | 66 | 262 | 1.0 | 7.0 | 0.00 | 0.00 | 0.00 | 55 | 1016.5 |
| 20260904212506 | 67 | 247 | 2.0 | 5.0 | 0.00 | 0.00 | 0.00 | 54 | 1016.5 |
| 20260904212003 | 67 | 82 | 3.0 | 6.0 | 0.00 | 0.00 | 0.00 | 55 | 1016.5 |
| 20260904211504 | 67 | 145 | 2.0 | 7.0 | 0.00 | 0.00 | 0.00 | 55 | 1016.5 |
| 20260904211006 | 67 | 172 | 2.0 | 7.0 | 0.00 | 0.00 | 0.00 | 54 | 1016.5 |
| 20260904210503 | 66 | 268 | 3.0 | 9.0 | 0.00 | 0.00 | 0.00 | 57 | 1016.4 |
| 20260904205501 | 65 | 122 | 2.0 | 7.0 | 0.00 | 0.00 | 0.00 | 60 | 1016.4 |
| 20260904205002 | 65 | 156 | 2.0 | 6.0 | 0.00 | 0.00 | 0.00 | 60 | 1016.3 |
| 20260904204504 | 65 | 218 | 1.0 | 5.0 | 0.00 | 0.00 | 0.00 | 60 | 1016.4 |
| 20260904203500 | 63 | 195 | 1.0 | 7.0 | 0.00 | 0.00 | 0.00 | 63 | 1016.3 |
| 20260904203006 | 63 | 248 | 2.0 | 4.0 | 0.00 | 0.00 | 0.00 | 68 | 1016.4 |
| 20260904202503 | 62 | 77 | 2.0 | 7.0 | 0.00 | 0.00 | 0.00 | 70 | 1016.4 |
| 20260904201505 | 61 | 254 | 1.0 | 5.0 | 0.00 | 0.00 | 0.00 | 69 | 1016.4 |
| 20260904201005 | 62 | 123 | 1.0 | 3.0 | 0.00 | 0.00 | 0.00 | 69 | 1016.3 |
| 20260904200500 | 61 | 291 | 1.0 | 5.0 | 0.00 | 0.00 | 0.00 | 69 | 1016.3 |
| 20260904194500 | 60 | 209 | 2.0 | 6.0 | 0.00 | 0.00 | 0.00 | 71 | 1016.6 |
| 20260904194002 | 60 | 292 | 2.0 | 5.0 | 0.00 | 0.00 | 0.00 | 72 | 1016.5 |
| 20260904193002 | 60 | 207 | 2.0 | 6.0 | 0.00 | 0.00 | 0.00 | 73 | 1016.5 |
| 20260904192503 | 60 | 176 | 2.0 | 7.0 | 0.00 | 0.00 | 0.00 | 74 | 1016.5 |
| 20260904192002 | 60 | 172 | 1.0 | 7.0 | 0.00 | 0.00 | 0.00 | 74 | 1016.6 |
| 20260904191503 | 60 | 127 | 1.0 | 3.0 | 0.00 | 0.00 | 0.00 | 76 | 1016.6 |
| 20260904191004 | 59 | 105 | 1.0 | 4.0 | 0.00 | 0.00 | 0.00 | 76 | 1016.6 |
| 20260904190008 | 58 | 234 | 1.0 | 4.0 | 0.00 | 0.00 | 0.00 | 79 | 1016.6 |
| 20260904185504 | 58 | 181 | 1.0 | 4.0 | 0.00 | 0.00 | 0.00 | 78 | 1016.6 |
| 20260904185004 | 58 | 79 | 2.0 | 6.0 | 0.00 | 0.00 | 0.00 | 79 | 1016.6 |
| 20260904184504 | 58 | 203 | 1.0 | 6.0 | 0.00 | 0.00 | 0.00 | 79 | 1016.6 |
| 20260904184004 | 58 | 210 | 1.0 | 5.0 | 0.00 | 0.00 | 0.00 | 80 | 1016.6 |
| 20260904183500 | 57 | 248 | 1.0 | 4.0 | 0.00 | 0.00 | 0.00 | 80 | 1016.6 |
| 20260904182500 | 58 | 143 | 1.0 | 5.0 | 0.00 | 0.00 | 0.00 | 80 | 1016.6 |
| 20260904182008 | 58 | 249 | 1.0 | 6.0 | 0.00 | 0.00 | 0.00 | 80 | 1016.6 |
| 20260904181503 | 57 | 49 | 1.0 | 6.0 | 0.00 | 0.00 | 0.00 | 81 | 1016.6 |
| 20260904181004 | 57 | 86 | 1.0 | 3.0 | 0.00 | 0.00 | 0.00 | 81 | 1016.5 |
| 20260904180504 | 57 | 110 | 1.0 | 3.0 | 0.00 | 0.00 | 0.00 | 82 | 1016.5 |
| 20260904180009 | 57 | 228 | 1.0 | 3.0 | 0.00 | 0.00 | 0.00 | 82 | 1016.5 |
| 20260904175503 | 56 | 79 | 2.0 | 6.0 | 0.00 | 0.00 | 0.00 | 83 | 1016.5 |
| 20260904175004 | 56 | 89 | 1.0 | 5.0 | 0.00 | 0.00 | 0.00 | 82 | 1016.5 |
| 20260904174004 | 56 | 234 | 1.0 | 4.0 | 0.00 | 0.00 | 0.00 | 84 | 1016.4 |
| 20260904173508 | 56 | 66 | 2.0 | 6.0 | 0.00 | 0.00 | 0.00 | 84 | 1016.3 |
| 20260904173006 | 56 | 142 | 1.0 | 6.0 | 0.00 | 0.00 | 0.00 | 83 | 1016.3 |
| 20260904172505 | 56 | 152 | 1.0 | 5.0 | 0.00 | 0.00 | 0.00 | 83 | 1016.3 |
| 20260904172003 | 56 | 254 | 2.0 | 6.0 | 0.00 | 0.00 | 0.00 | 83 | 1016.2 |
| 20260904171504 | 56 | 97 | 1.0 | 6.0 | 0.00 | 0.00 | 0.00 | 83 | 1016.1 |
| 20260904171003 | 56 | 146 | 0.0 | 4.0 | 0.00 | 0.00 | 0.00 | 84 | 1016.1 |
| 20260904170503 | 56 | 205 | 1.0 | 3.0 | 0.00 | 0.00 | 0.00 | 84 | 1016.1 |
| 20260904170003 | 56 | 106 | 1.0 | 3.0 | 0.00 | 0.00 | 0.00 | 84 | 1015.9 |
| 20260904165503 | 55 | 75 | 1.0 | 4.0 | 0.00 | 0.00 | 0.00 | 85 | 1015.9 |
| 20260904164503 | 55 | 103 | 1.0 | 4.0 | 0.00 | 0.00 | 0.00 | 86 | 1015.9 |
| 20260904164004 | 55 | 212 | 1.0 | 4.0 | 0.00 | 0.00 | 0.00 | 85 | 1015.7 |
| 20260904163504 | 55 | 147 | 1.0 | 3.0 | 0.00 | 0.00 | 0.00 | 86 | 1015.8 |
| 20260904163004 | 55 | 139 | 1.0 | 4.0 | 0.00 | 0.00 | 0.00 | 86 | 1015.7 |
| 20260904162503 | 55 | 198 | 2.0 | 7.0 | 0.00 | 0.00 | 0.00 | 86 | 1015.5 |
| 20260904162004 | 54 | 221 | 1.0 | 7.0 | 0.00 | 0.00 | 0.00 | 86 | 1015.5 |
| 20260904161004 | 55 | 137 | 1.0 | 3.0 | 0.00 | 0.00 | 0.00 | 86 | 1015.5 |
| 20260904155502 | 54 | 174 | 1.0 | 4.0 | 0.00 | 0.00 | 0.00 | 87 | 1015.5 |
| 20260904155007 | 54 | 160 | 1.0 | 4.0 | 0.00 | 0.00 | 0.00 | 87 | 1015.4 |
| 20260904154009 | 54 | 229 | 1.0 | 4.0 | 0.00 | 0.00 | 0.00 | 87 | 1015.4 |
| 20260904153504 | 54 | 234 | 0.0 | 3.0 | 0.00 | 0.00 | 0.00 | 87 | 1015.4 |
| 20260904153007 | 54 | 212 | 1.0 | 3.0 | 0.00 | 0.00 | 0.00 | 87 | 1015.4 |
| 20260904152506 | 54 | 144 | 0.0 | 2.0 | 0.00 | 0.00 | 0.00 | 87 | 1015.4 |
| 20260904152006 | 54 | 154 | 0.0 | 2.0 | 0.00 | 0.00 | 0.00 | 87 | 1015.4 |
| 20260904151505 | 54 | 180 | 0.0 | 2.0 | 0.00 | 0.00 | 0.00 | 87 | 1015.4 |
| 20260904151006 | 54 | 132 | 1.0 | 2.0 | 0.00 | 0.00 | 0.00 | 87 | 1015.4 |
| 20260904150505 | 54 | 127 | 0.0 | 2.0 | 0.00 | 0.00 | 0.00 | 87 | 1015.3 |
| 20260904150009 | 54 | 200 | 0.0 | 2.0 | 0.00 | 0.00 | 0.00 | 87 | 1015.2 |
| 20260904145505 | 54 | 148 | 0.0 | 1.0 | 0.00 | 0.00 | 0.00 | 87 | 1015.2 |
| 20260904145006 | 54 | 148 | 0.0 | 1.0 | 0.00 | 0.00 | 0.00 | 87 | 1015.2 |
| 20260904144503 | 54 | 148 | 0.0 | 2.0 | 0.00 | 0.00 | 0.00 | 87 | 1015.1 |
| 20260904144004 | 54 | 212 | 0.0 | 1.0 | 0.00 | 0.00 | 0.00 | 87 | 1015.0 |
| 20260904143503 | 54 | 132 | 0.0 | 1.0 | 0.00 | 0.00 | 0.00 | 87 | 1015.1 |
| 20260904143004 | 54 | 196 | 0.0 | 2.0 | 0.00 | 0.00 | 0.00 | 87 | 1015.0 |
| 20260904142503 | 54 | 196 | 0.0 | 2.0 | 0.00 | 0.00 | 0.00 | 87 | 1014.9 |
| 20260904141005 | 54 | 137 | 1.0 | 2.0 | 0.00 | 0.00 | 0.00 | 85 | 1014.7 |
| 20260904140504 | 54 | 136 | 0.0 | 2.0 | 0.00 | 0.00 | 0.00 | 85 | 1014.6 |
| 20260904140008 | 54 | 143 | 0.0 | 1.0 | 0.00 | 0.00 | 0.00 | 84 | 1014.7 |
| 20260904135504 | 54 | 136 | 0.0 | 1.0 | 0.00 | 0.00 | 0.00 | 84 | 1014.5 |
| 20260904135005 | 54 | 197 | 0.0 | 2.0 | 0.00 | 0.00 | 0.00 | 83 | 1014.6 |
| 20260904134505 | 54 | 203 | 0.0 | 2.0 | 0.00 | 0.00 | 0.00 | 83 | 1014.5 |
| 20260904134005 | 54 | 149 | 0.0 | 2.0 | 0.00 | 0.00 | 0.00 | 83 | 1014.5 |
| 20260904133503 | 55 | 142 | 0.0 | 2.0 | 0.00 | 0.00 | 0.00 | 82 | 1014.3 |
| 20260904133003 | 55 | 139 | 0.0 | 1.0 | 0.00 | 0.00 | 0.00 | 82 | 1014.3 |
| 20260904132006 | 55 | 145 | 0.0 | 1.0 | 0.00 | 0.00 | 0.00 | 82 | 1014.3 |
| 20260904131504 | 55 | 133 | 0.0 | 1.0 | 0.00 | 0.00 | 0.00 | 82 | 1014.3 |
| 20260904131007 | 55 | 138 | 0.0 | 1.0 | 0.00 | 0.00 | 0.00 | 82 | 1014.3 |
| 20260904130502 | 55 | 142 | 0.0 | 2.0 | 0.00 | 0.00 | 0.00 | 81 | 1014.3 |
| 20260904130008 | 55 | 146 | 1.0 | 3.0 | 0.00 | 0.00 | 0.00 | 81 | 1014.2 |
| 20260904125505 | 55 | 130 | 1.0 | 4.0 | 0.00 | 0.00 | 0.00 | 81 | 1014.2 |
| 20260904125004 | 55 | 142 | 0.0 | 3.0 | 0.00 | 0.00 | 0.00 | 81 | 1014.1 |
| 20260904124503 | 55 | 144 | 0.0 | 3.0 | 0.00 | 0.00 | 0.00 | 81 | 1014.2 |
| 20260904124005 | 55 | 236 | 0.0 | 2.0 | 0.00 | 0.00 | 0.00 | 80 | 1014.2 |
| 20260904123505 | 55 | 140 | 0.0 | 1.0 | 0.00 | 0.00 | 0.00 | 80 | 1014.1 |
| 20260904123005 | 55 | 134 | 0.0 | 2.0 | 0.00 | 0.00 | 0.00 | 80 | 1014.2 |
| 20260904122504 | 55 | 133 | 0.0 | 2.0 | 0.00 | 0.00 | 0.00 | 79 | 1014.1 |
| 20260904122004 | 55 | 127 | 0.0 | 1.0 | 0.00 | 0.00 | 0.00 | 79 | 1014.1 |
| 20260904121005 | 55 | 196 | 0.0 | 1.0 | 0.00 | 0.00 | 0.00 | 79 | 1014.2 |
| 20260904120504 | 55 | 196 | 0.0 | 1.0 | 0.00 | 0.00 | 0.00 | 79 | 1014.2 |
| 20260904120006 | 55 | 240 | 0.0 | 1.0 | 0.00 | 0.00 | 0.00 | 79 | 1014.2 |
| 20260904115503 | 55 | 145 | 0.0 | 1.0 | 0.00 | 0.00 | 0.00 | 79 | 1014.2 |
| 20260904115006 | 55 | 142 | 0.0 | 1.0 | 0.00 | 0.00 | 0.00 | 79 | 1014.2 |
| 20260904114503 | 55 | 141 | 0.0 | 1.0 | 0.00 | 0.00 | 0.00 | 79 | 1014.2 |
| 20260904114007 | 55 | 142 | 0.0 | 1.0 | 0.00 | 0.00 | 0.00 | 79 | 1014.2 |
| 20260904113004 | 55 | 200 | 0.0 | 0.0 | 0.00 | 0.00 | 0.00 | 79 | 1014.2 |
| 20260904112504 | 55 | 200 | 0.0 | 0.0 | 0.00 | 0.00 | 0.00 | 80 | 1014.1 |
| 20260904112004 | 55 | 200 | 0.0 | 0.0 | 0.00 | 0.00 | 0.00 | 80 | 1014.2 |
| 20260904111504 | 55 | 197 | 0.0 | 0.0 | 0.00 | 0.00 | 0.00 | 80 | 1014.2 |
| 20260904111003 | 55 | 197 | 0.0 | 0.0 | 0.00 | 0.00 | 0.00 | 80 | 1014.2 |
| 20260904110505 | 55 | 197 | 0.0 | 1.0 | 0.00 | 0.00 | 0.00 | 80 | 1014.2 |
| 20260904110008 | 55 | 297 | 0.0 | 1.0 | 0.00 | 0.00 | 0.00 | 80 | 1014.2 |
| 20260904105502 | 55 | 262 | 0.0 | 0.0 | 0.00 | 0.00 | 0.00 | 80 | 1014.2 |
| 20260904105005 | 55 | 262 | 0.0 | 0.0 | 0.00 | 0.00 | 0.00 | 80 | 1014.2 |
| 20260904104502 | 55 | 283 | 0.0 | 1.0 | 0.00 | 0.00 | 0.00 | 80 | 1014.2 |
| 20260904104005 | 55 | 283 | 0.0 | 1.0 | 0.00 | 0.00 | 0.00 | 81 | 1014.1 |
| 20260904103504 | 55 | 283 | 0.0 | 1.0 | 0.00 | 0.00 | 0.00 | 80 | 1014.2 |
| 20260904103004 | 55 | 284 | 0.0 | 0.0 | 0.00 | 0.00 | 0.00 | 80 | 1014.2 |
| 20260904102505 | 55 | 284 | 0.0 | 0.0 | 0.00 | 0.00 | 0.00 | 80 | 1014.2 |
| 20260904102004 | 55 | 284 | 0.0 | 0.0 | 0.00 | 0.00 | 0.00 | 80 | 1014.2 |
| 20260904101505 | 55 | 284 | 0.0 | 1.0 | 0.00 | 0.00 | 0.00 | 80 | 1014.1 |
| 20260904101005 | 55 | 284 | 0.0 | 1.0 | 0.00 | 0.00 | 0.00 | 80 | 1014.1 |
| 20260904100006 | 55 | 284 | 0.0 | 0.0 | 0.00 | 0.00 | 0.00 | 79 | 1014.1 |
| 20260904095504 | 55 | 284 | 0.0 | 0.0 | 0.00 | 0.00 | 0.00 | 79 | 1014.0 |
| 20260904095005 | 55 | 284 | 0.0 | 0.0 | 0.00 | 0.00 | 0.00 | 79 | 1013.9 |
| 20260904094502 | 55 | 284 | 0.0 | 0.0 | 0.00 | 0.00 | 0.00 | 79 | 1013.9 |